Location: Austin
(30.3000°N, 97.7500°W)
Time: 04:29:22
(UTC-06:00)

YAOGAN 1 - Pass Details

Date: 17 November 2024
Orbit: 609 x 611 km, 97.8° (Epoch: 05 December)

Event Time Altitude Azimuth Distance (km) Brightness Sun altitude
Rises 19:11:39 0° 163° (SSE) 2,857 5.9 -21.2°
Reaches altitude 10° 19:13:50 10° 162° (SSE) 1,956 5.0 -21.7°
Maximum altitude 19:18:04 75° 78° (ENE) 633 2.3 -22.6°
Drops below altitude 10° 19:22:20 10° 352° (N) 1,967 5.1 -23.5°
Sets 19:24:31 0° 351° (N) 2,874 6.0 -24.0°
